Location: Mountain Lakes
(44.1215°N, 71.9554°W)
Time: 16:03:08
(UTC+00:00)

Cosmos 1844 - Pass Details

Date: 08 September 2024
Orbit: 823 x 865 km, 70.9° (Epoch: 12 October)

Event Time Altitude Azimuth Distance (km) Brightness Sun altitude
Rises 23:27:39 0° 333° (NNW) 3,370 7.4 -3.9°
Reaches altitude 10° 23:30:05 10° 331° (NNW) 2,432 6.7 -4.4°
Maximum altitude 23:35:38 74° 248° (WSW) 858 4.0 -5.3°
Drops below altitude 10° 23:41:10 10° 164° (SSE) 2,421 5.8 -6.3°
Sets 23:43:35 0° 162° (SSE) 3,354 6.5 -6.7°
